Regional Weather Roundup
Issued by NWS Little Rock, AR

Home | Current Version | Previous Version | Text Only | Print | Product List | Glossary Off
Versions: 1 2 3 4 5 6 7 8 9 10 11 12 13 14 15 16 17 18 19 20 21 22 23 24 25 26 27 28 29 30 31 32 33 34 35 36 37 38 39 40 41 42 43 44 45 46 47 48 49

000
ASUS44 KLZK 231105
RWRLZK

WEATHER ROUNDUP FOR ARKANSAS
NATIONAL WEATHER SERVICE LITTLE ROCK AR
600 AM CDT WED JUL 23 2014

NOTE: "FAIR" INDICATES FEW OR NO CLOUDS BELOW 12,000 FEET WITH NO
SIGNIFICANT WEATHER AND/OR OBSTRUCTIONS TO VISIBILITY.

ARZ001-003-010-029-231200-
NORTHWEST ARKANSAS

CITY           SKY/WX    TMP DP  RH WIND       PRES   REMARKS
FAYETTEVILLE   PTCLDY    72  71  97 CALM      30.12R
FORT SMITH     PTCLDY    77  74  90 E3        30.06S
HARRISON       MOCLDY    77  73  87 W7        30.10S
BENTONVILLE    PTCLDY    75  72  88 W3        30.12S
ROGERS         MOCLDY    76  72  87 SW6       30.12S
SILOAM SPGS    PTCLDY    73  66  78 S3        30.12S
HIGHFILL       MOCLDY    75  73  93 SW6       30.11S
SPRINGDALE     PTCLDY    77  72  83 SW3       30.13
$$

ARZ004-005-016-231200-
NORTH CENTRAL ARKANSAS

CITY           SKY/WX    TMP DP  RH WIND       PRES   REMARKS
BATESVILLE     PTCLDY    72  68  88 CALM      30.06R
FLIPPIN        PTCLDY    73  66  78 CALM      30.06S
MTN HOME       PTCLDY    73  70  90 CALM      30.06F
$$

ARZ040-041-231200-
WEST CENTRAL ARKANSAS

CITY           SKY/WX    TMP DP  RH WIND       PRES   REMARKS
MENA           CLEAR     73  72  94 CALM      30.10S
MOUNT IDA      MOCLDY    69  68  96 CALM      30.07R FOG
$$

ARZ009-017-025-026-028-231200-
NORTHEAST ARKANSAS

CITY           SKY/WX    TMP DP  RH WIND       PRES   REMARKS
CORNING        FAIR      72  72 100 S3        30.04F FOG
JONESBORO      CLEAR     72  69  90 W3        30.05R
NEWPORT        CLEAR     69  69 100 S5        30.07R FOG
WALNUT RIDGE   CLEAR     72  57  60 S5        30.05R
BLYTHEVILLE    CLEAR     72  70  93 S3        30.05S
$$

ARZ022-023-033-042-044-231200-
CENTRAL ARKANSAS

CITY           SKY/WX    TMP DP  RH WIND       PRES   REMARKS
LITTLE ROCK    PTCLDY    71  67  87 SW3       30.07R FOG
N LITTLE ROCK    N/A     73  69  89 SW5       30.07R
JACKSONVILLE   PTCLDY    67  66  97 CALM      30.07R
SEARCY         CLEAR     66  66 100 CALM      30.07R FOG
HOT SPRINGS    PTCLDY    70  68  93 CALM      30.08S
RUSSELLVILLE   PTCLDY    73  70  90 CALM      30.06R
CLINTON        FAIR      70  70 100 CALM      30.08R FOG
$$

ARZ036-231200-
EAST ARKANSAS

CITY           SKY/WX    TMP DP  RH WIND       PRES   REMARKS
WEST MEMPHIS   CLEAR     70  70 100 CALM      30.04S FOG
$$

ARZ050-053-066-070-073-231200-
SOUTHWEST ARKANSAS

CITY           SKY/WX    TMP DP  RH WIND       PRES   REMARKS
ARKADELPHIA    FOG       68  68 100 CALM      30.08R VSB 1/4
CAMDEN         FOG       68  66  94 CALM      30.07R VSB<1/4
TEXARKANA      CLEAR     70  69  97 CALM      30.08R
EL DORADO      CLEAR     68  67  96 CALM      30.07S
DE QUEEN       FOG       69  68  96 CALM      30.06S VSB 1/2
$$

ARZ056-057-069-231200-
SOUTHEAST ARKANSAS

CITY           SKY/WX    TMP DP  RH WIND       PRES   REMARKS
PINE BLUFF     CLEAR     69  68  96 CALM      30.07R
STUTTGART      CLEAR     72  68  88 CALM      30.06S
MONTICELLO     CLEAR     69  67  93 CALM      30.06R FOG

$$




USA.gov is the U.S. government's official web portal to all federal, state and local government web resources and services.